Home > Weather > Daegu > Past weeks

Flag for South Korea Past Weather in Daegu, South Korea — Yesterday and Last 2 Weeks

Now
77 °F

Passing clouds.


Feels Like: 78 °F
Forecast: 53 / 81 °F
Wind: 13 mph from Southeast

Location: Taegu Ab

Current Time: Jun 1, 2016 at 12:47:37 PM

Latest Report: Jun 1, 2016 at 12:00 PM


Visibility: N/A

Pressure: 29.77 "Hg

Humidity: 34%

Dew Point: 46 °F

Location of DaeguLocation

Past Weather in Daegu — Graph

°F

Daegu Temperature Yesterday

Maximum temperature yesterday: 86 °F (at 4:00 PM)
Minimum temperature yesterday: 64 °F (at 5:00 AM)
Average temperature yesterday: 76 °F

High & Low Weather Summary for the Past Weeks

 TemperatureHumidityPressure
High90 °F (May 18, 4:00 PM)94% (May 24, 11:50 AM)30.12 "Hg (May 24, 11:50 AM)
Low50 °F (May 22, 6:00 AM)14% (May 19, 5:00 PM)29.53 "Hg (May 29, 4:00 PM)
Average71 °F54%29.86 "Hg
* Reported May 17 11:00 AM — Jun 1 11:00 AM, Daegu, Weather by CustomWeather, © 2016

Note: Actual official high and low records may vary slightly from our data, if they occured in-between our weather recording intervals... More about our weather records

Advertising

Daegu Weather History for the Previous 24 Hours

Scroll right to see more
 ConditionsComfort  
Time TempWeatherWind HumidityBarometerVisibility
11:00 AM
Wed, Jun 1
75 °FPassing clouds.16 mph34%29.77 "HgN/A
10:00 AM73 °FPassing clouds.14 mph44%29.77 "HgN/A
9:00 AM70 °FPassing clouds.13 mph60%29.80 "HgN/A
8:00 AM68 °FScattered clouds.13 mph60%29.77 "HgN/A
7:00 AM66 °FPartly sunny.13 mph68%29.77 "HgN/A
6:00 AM66 °FSunny.10 mph68%29.77 "Hg10 mi
5:00 AM66 °FClear.14 mph60%29.74 "Hg10 mi
4:00 AM68 °FClear.10 mph49%29.74 "Hg10 mi
3:00 AM68 °FClear.9 mph53%29.71 "Hg10 mi
2:00 AM68 °FClear.10 mph56%29.71 "Hg10 mi
1:00 AM70 °FClear.7 mph53%29.74 "Hg10 mi
12:00 AM72 °FClear.6 mph50%29.71 "Hg10 mi
11:00 PM
Tue, May 31
75 °FClear.7 mph47%29.71 "Hg10 mi
10:00 PM77 °FClear.2 mph54%29.71 "Hg10 mi
9:00 PM77 °FClear.1 mph51%29.68 "Hg10 mi
8:00 PM81 °FClear.3 mph42%29.65 "Hg10 mi
7:00 PM82 °FSunny.7 mph37%29.65 "Hg10 mi
6:00 PM86 °FSunny.8 mph31%29.62 "Hg10 mi
5:00 PM84 °FSunny.9 mph35%29.62 "Hg10 mi
4:00 PM86 °FSunny.8 mph33%29.65 "Hg10 mi
3:00 PM84 °FSunny.6 mph33%29.65 "Hg10 mi
2:00 PM82 °FSunny.8 mph35%29.68 "Hg10 mi
1:00 PM82 °FSunny.12 mph37%29.71 "Hg10 mi
12:00 PM81 °FSunny.14 mph39%29.71 "Hg10 mi
Weather by CustomWeather, © 2016

See weather overviewHow to use our weather pages